STARLINK-31871, 59673

Orbit data source: Space-Track

STARLINK-31871, 59673 is a payload satellite owned by SpaceX/Seattle (US) in LEO that was launched on Mon, 06 May 2024 UTC via an FALCON 9 launch vehicle from the Air Force Eastern Test Range (AFETR). Payload-class satellites include a variety of spacecraft equipped with specific instruments for various scientific and technological missions. These include communications satellites like Starlink; space stations such as the ISS; scientific satellites like the Hubble; Earth observation satellites from companies like Planet Labs, Umbra, and HawkEye 360; GPS; miniature CubeSats for education and research; and military/defense satellites.

Loading next visibility...
Identifier
59673, 2024-084V
Orbit
LEO
Country
Flag of USUS
Related business
Manufacturer
SpaceX/Seattle
Mission
Operational Commercial Communications
Bus & Motor
STARLINK V2M, Unknown motor
Mass
730 kg wet, ~700 kg dry
Launch date (UTC)
2024-05-06 (2 years ago)
Launch vehicle
FALCON 9
Launch site
Air Force Eastern Test Range (AFETR)
Object type
Payload
Rocket body
Debris
Shape & HBR
Box + 2 Pan, 17.7 m
Radar Cross Section
33.884 m², Large (>1 m²)

Expand to show TLE details & history
Last TLE update: 3 days ago

TLE from 3 days ago
0 STARLINK-31871
1 59673U 24084V   26170.49316847  .00000953  00000-0  44178-4 0  9991
2 59673  43.0040 186.7742 0001383 272.3448  87.7245 15.27566456119947
Epoch: 2026-06-19T11:50Z
TLE epoch observation values (Epoch: 2026-06-19T11:50:09.755Z)
Latitude
-0.00006°
Longitude
101.51214°
Altitude
482.828 km
Speed
7.626 km/s
True Right ascension
12h 27m 05s
True Declination
0° 00' 00"
Sunlit
Object was in daylight at epoch
Visualization orbit readout
Latitude
Unknown
Longitude
Unknown
Altitude
Unknown
Speed
Unknown
Apparent Right ascension
Unknown
Apparent Declination
Unknown
Sunlit
N/A
Visualization observer readout
Local Sidereal Time
21:36:08
Azimuth
Unknown
Elevation
Unknown
Doppler factor
Unknown
Orbital elements
Apogee altitude
485.983 km
Perigee altitude
484.085 km
Semi-major axis
6,863.171 km
Eccentricity
0.00014
Inclination
43.004°
RAAN
186.7742°
Arg. of periapsis
272.3448°
True anomaly
87.74034°
Mean anomaly
87.7245°
Eccentric anomaly
87.73242°
Mean motion
3.8173 °/min
Orbital period
94.31 mins
BSTAR
0.000044178
Loading maneuver chart data...
Computing Atmospheric mass density...
Loading historical data...
Loading historical data...
Loading historical data...
Loading historical data...
Loading historical data...
Loading historical data...
Loading historical data...

Documentation

Showing up to 5 results
|